When you browse on this site, cookies collect data to enhance your experience and personalize the content and advertising you see.
Visit our Privacy Policy to learn more. By continuing to use the site, you agree to this use of cookies and data.
  • In Germany
  • List of Countries
  • For 7 days
  • Water Temperature
  • Weather Map
  • Weather Widgets
  • user-avatar
    Login

    Hourly Weather Innsbruck

    Today, 25 August, Sunday

    Time Temperature Precipitation Wind Pressure Humidity
    00:00 +9°C° 0 mm 1 mps 600 mmHg 89%
    01:00 +8°C° 0 mm 1 mps 600 mmHg 89%
    02:00 +8°C° 0 mm 1 mps 600 mmHg 89%
    03:00 +8°C° 0 mm 1 mps 600 mmHg 89%
    04:00 +8°C° 0 mm 1 mps 600 mmHg 89%
    05:00 +9°C° 0 mm 1 mps 600 mmHg 86%
    06:00 +10°C° 0 mm 1 mps 601 mmHg 84%
    07:00 +11°C° 0 mm 0 mps 601 mmHg 81%
    08:00 +13°C° 0.3 mm 1 mps 602 mmHg 76%
    09:00 +15°C° 0.3 mm 1 mps 603 mmHg 70%
    10:00 +18°C° 0.3 mm 1 mps 604 mmHg 65%
    11:00 +18°C° 1.5 mm 1 mps 603 mmHg 68%
    12:00 +18°C° 1.5 mm 1 mps 603 mmHg 70%
    13:00 +18°C° 1.5 mm 1 mps 603 mmHg 72%
    14:00 +16°C° 1.7 mm 1 mps 603 mmHg 76%
    15:00 +15°C° 1.7 mm 1 mps 602 mmHg 80%
    16:00 +15°C° 1.7 mm 1 mps 602 mmHg 84%
    17:00 +13°C° 0.5 mm 1 mps 601 mmHg 86%
    18:00 +11°C° 0.5 mm 0 mps 601 mmHg 87%
    19:00 +10°C° 0.5 mm 0 mps 600 mmHg 89%
    20:00 +9°C° 0.1 mm 0 mps 600 mmHg 89%
    21:00 +8°C° 0.1 mm 0 mps 600 mmHg 90%
    22:00 +9°C° 0.1 mm 1 mps 600 mmHg 90%
    23:00 +8°C° 0 mm 1 mps 600 mmHg 90%

    Tomorrow, 26 August, Monday

    Time Temperature Precipitation Wind Pressure Humidity
    00:00 +8°C° 0 mm 1 mps 600 mmHg 90%
    01:00 +8°C° 0 mm 1 mps 599 mmHg 90%
    02:00 +8°C° 0 mm 1 mps 599 mmHg 90%
    03:00 +7°C° 0 mm 1 mps 599 mmHg 89%
    04:00 +7°C° 0 mm 1 mps 599 mmHg 89%
    05:00 +9°C° 0 mm 1 mps 600 mmHg 87%
    06:00 +10°C° 0 mm 1 mps 600 mmHg 84%
    07:00 +10°C° 0 mm 0 mps 601 mmHg 82%
    08:00 +13°C° 0 mm 1 mps 602 mmHg 74%
    09:00 +16°C° 0 mm 1 mps 603 mmHg 66%
    10:00 +19°C° 0 mm 1 mps 603 mmHg 58%
    11:00 +19°C° 0.9 mm 1 mps 603 mmHg 59%
    12:00 +19°C° 0.9 mm 1 mps 603 mmHg 60%
    13:00 +19°C° 0.9 mm 1 mps 603 mmHg 61%
    14:00 +19°C° 1.9 mm 1 mps 603 mmHg 64%
    15:00 +18°C° 1.9 mm 1 mps 602 mmHg 68%
    16:00 +18°C° 1.9 mm 1 mps 602 mmHg 71%
    17:00 +15°C° 1.3 mm 1 mps 601 mmHg 77%
    18:00 +13°C° 1.3 mm 1 mps 601 mmHg 83%
    19:00 +11°C° 1.3 mm 0 mps 600 mmHg 88%
    20:00 +10°C° 0.1 mm 0 mps 600 mmHg 88%
    21:00 +10°C° 0.1 mm 1 mps 600 mmHg 89%
    22:00 +9°C° 0.1 mm 1 mps 599 mmHg 89%
    23:00 +9°C° 0 mm 1 mps 599 mmHg 88%

    Day after tomorrow, 27 August, Tuesday

    Time Temperature Precipitation Wind Pressure Humidity
    00:00 +9°C° 0 mm 1 mps 599 mmHg 88%
    01:00 +8°C° 0 mm 1 mps 599 mmHg 88%
    02:00 +8°C° 0 mm 1 mps 599 mmHg 88%
    03:00 +8°C° 0 mm 1 mps 599 mmHg 88%
    04:00 +8°C° 0 mm 1 mps 599 mmHg 88%
    05:00 +9°C° 0 mm 1 mps 599 mmHg 86%
    06:00 +10°C° 0 mm 1 mps 600 mmHg 84%
    07:00 +12°C° 0 mm 1 mps 601 mmHg 82%
    08:00 +14°C° 0 mm 1 mps 602 mmHg 72%
    09:00 +18°C° 0 mm 1 mps 603 mmHg 62%
    10:00 +20°C° 0 mm 1 mps 604 mmHg 52%
    11:00 +21°C° 0 mm 1 mps 604 mmHg 48%
    12:00 +21°C° 0 mm 1 mps 604 mmHg 43%
    13:00 +22°C° 0 mm 1 mps 604 mmHg 39%
    14:00 +22°C° 0.1 mm 1 mps 604 mmHg 42%
    15:00 +21°C° 0.1 mm 1 mps 604 mmHg 45%
    16:00 +20°C° 0.1 mm 2 mps 603 mmHg 48%
    17:00 +18°C° 0.1 mm 1 mps 602 mmHg 60%
    18:00 +15°C° 0.1 mm 1 mps 601 mmHg 71%
    19:00 +11°C° 0.1 mm 0 mps 600 mmHg 83%
    20:00 +12°C° 0 mm 1 mps 600 mmHg 84%
    21:00 +11°C° 0 mm 1 mps 600 mmHg 86%
    22:00 +10°C° 0 mm 1 mps 600 mmHg 87%
    23:00 +10°C° 0 mm 1 mps 600 mmHg 87%

    28 August, Wednesday

    Time Temperature Precipitation Wind Pressure Humidity
    00:00 +10°C° 0 mm 1 mps 600 mmHg 86%
    01:00 +10°C° 0 mm 1 mps 600 mmHg 86%
    02:00 +10°C° 0 mm 1 mps 599 mmHg 86%
    03:00 +9°C° 0 mm 1 mps 599 mmHg 86%
    04:00 +9°C° 0 mm 1 mps 599 mmHg 86%
    05:00 +10°C° 0 mm 1 mps 599 mmHg 84%
    06:00 +11°C° 0 mm 1 mps 600 mmHg 82%
    07:00 +12°C° 0 mm 1 mps 600 mmHg 80%
    08:00 +14°C° 0 mm 1 mps 601 mmHg 72%
    09:00 +16°C° 0 mm 1 mps 602 mmHg 65%
    10:00 +20°C° 0 mm 1 mps 603 mmHg 58%
    11:00 +20°C° 0.1 mm 1 mps 603 mmHg 55%
    12:00 +21°C° 0.1 mm 1 mps 603 mmHg 52%
    13:00 +22°C° 0.1 mm 1 mps 603 mmHg 49%
    14:00 +21°C° 0.7 mm 1 mps 602 mmHg 54%
    15:00 +20°C° 0.7 mm 1 mps 602 mmHg 59%
    16:00 +18°C° 0.7 mm 2 mps 601 mmHg 65%
    17:00 +16°C° 0.8 mm 1 mps 600 mmHg 72%
    18:00 +14°C° 0.8 mm 1 mps 600 mmHg 80%
    19:00 +11°C° 0.8 mm 0 mps 599 mmHg 87%
    20:00 +12°C° 0.5 mm 1 mps 599 mmHg 88%
    21:00 +11°C° 0.5 mm 1 mps 599 mmHg 88%
    22:00 +11°C° 0.5 mm 1 mps 598 mmHg 89%
    23:00 +10°C° 0 mm 1 mps 598 mmHg 89%

    29 August, Thursday

    Time Temperature Precipitation Wind Pressure Humidity
    00:00 +10°C° 0 mm 1 mps 598 mmHg 88%
    01:00 +10°C° 0 mm 1 mps 598 mmHg 88%
    02:00 +9°C° 0.1 mm 1 mps 598 mmHg 88%
    03:00 +9°C° 0.1 mm 1 mps 597 mmHg 88%
    04:00 +8°C° 0.1 mm 1 mps 597 mmHg 88%
    05:00 +10°C° 0.1 mm 1 mps 598 mmHg 86%
    06:00 +11°C° 0.1 mm 1 mps 598 mmHg 85%
    07:00 +12°C° 0.1 mm 1 mps 599 mmHg 83%
    08:00 +13°C° 0.3 mm 1 mps 600 mmHg 79%
    09:00 +15°C° 0.3 mm 1 mps 601 mmHg 74%
    10:00 +16°C° 0.3 mm 1 mps 601 mmHg 70%
    11:00 +16°C° 1.1 mm 1 mps 601 mmHg 71%
    12:00 +16°C° 1.1 mm 1 mps 601 mmHg 73%
    13:00 +16°C° 1.1 mm 1 mps 601 mmHg 74%
    14:00 +16°C° 1.3 mm 2 mps 601 mmHg 77%
    15:00 +15°C° 1.3 mm 2 mps 601 mmHg 79%
    16:00 +15°C° 1.3 mm 2 mps 600 mmHg 82%
    17:00 +14°C° 1.2 mm 1 mps 600 mmHg 86%
    18:00 +12°C° 1.2 mm 1 mps 600 mmHg 89%
    19:00 +11°C° 1.2 mm 1 mps 600 mmHg 93%
    20:00 +11°C° 0.6 mm 1 mps 600 mmHg 94%
    21:00 +10°C° 0.6 mm 1 mps 600 mmHg 94%
    22:00 +10°C° 0.6 mm 1 mps 600 mmHg 95%
    23:00 +10°C° 0 mm 1 mps 600 mmHg 94%

    30 August, Friday

    Time Temperature Precipitation Wind Pressure Humidity
    00:00 +9°C° 0 mm 1 mps 600 mmHg 94%
    01:00 +9°C° 0 mm 1 mps 600 mmHg 93%
    02:00 +9°C° 0 mm 1 mps 600 mmHg 93%
    03:00 +7°C° 0 mm 0 mps 600 mmHg 94%
    04:00 +7°C° 0 mm 0 mps 600 mmHg 94%
    05:00 +8°C° 0 mm 0 mps 600 mmHg 93%
    06:00 +8°C° 0 mm 0 mps 600 mmHg 92%
    07:00 +9°C° 0 mm 0 mps 601 mmHg 91%
    08:00 +11°C° 0 mm 0 mps 601 mmHg 86%
    09:00 +13°C° 0 mm 1 mps 602 mmHg 81%
    10:00 +14°C° 0 mm 1 mps 603 mmHg 76%
    11:00 +15°C° 0.6 mm 1 mps 603 mmHg 72%
    12:00 +16°C° 0.6 mm 1 mps 603 mmHg 69%
    13:00 +18°C° 0.6 mm 1 mps 603 mmHg 66%
    14:00 +16°C° 1 mm 1 mps 603 mmHg 71%
    15:00 +16°C° 1 mm 1 mps 602 mmHg 76%
    16:00 +15°C° 1 mm 1 mps 602 mmHg 81%
    17:00 +14°C° 0.6 mm 1 mps 601 mmHg 86%
    18:00 +12°C° 0.6 mm 1 mps 601 mmHg 91%
    19:00 +10°C° 0.6 mm 0 mps 600 mmHg 96%
    20:00 +9°C° 0.1 mm 0 mps 600 mmHg 96%
    21:00 +9°C° 0.1 mm 0 mps 600 mmHg 96%
    22:00 +8°C° 0.1 mm 0 mps 600 mmHg 95%
    23:00 +8°C° 0 mm 0 mps 600 mmHg 94%
    Show more